User: anonymous   Login
Location: Unspecified
(0.0000°N, 0.0000°E)
Time: 14:33:58
(UTC+02:00)
Language:

YAOGAN 3 - Orbit

View from above orbital plane
View from above orbital plane
View from above satellite
View from above satellite

Ground track
Ground track

The orbit data is extracted from the following two-line orbital elements,

1 32289U 07055A   16147.04246678  .00000396  00000-0  58368-4 0  9999
2 32289  97.9843 144.3047 0001749  97.7074 262.4338 14.80699147461440
Epoch (UTC): 26 May 2016 01:01:09
Eccentricity: 0.0001749
inclination: 97.9843°
perigee height: 626 km
apogee height: 628 km
right ascension of ascending node: 144.3047°
argument of perigee: 97.7074°
revolutions per day: 14.80699147
mean anomaly at epoch: 262.4338°
orbit number at epoch: 46144

The dashed part of the orbit path shows where the satellite is in the earth's shadow,  

DLR